Temp_Advection
nan nan nan nan nan nan nan nan nan nan nan nan nan nan nan nan nan nan nan nan nan nan nan nan nan nan nan nan nan nan nan nan nan nan nan nan nan nan nan nan nan nan nan
nan 0 -0 0 0 0 0 0 0 0 0 0 0 0 0 0 0 0 0 0 0 0 0 0 -0 -0 -0 -0 0 0 0 0 0 0 0 0 0 0 0 0 0 0 nan
nan 0 0 0 0 0 0 0 0 0 0 0 0 0 0 0 0 0 0 0 0 0 -0 -0 0 0 0 0 0 0 0 0 0 0 0 0 0 0 0 0 0 0 nan
nan 0 0 0 0 0 0 0 0 0 0 0 0 0 0 0 0 0 0 0 0 0 -0 -0 0 0 0 0 0 0 0 0 0 0 0 0 0 0 0 0 0 0 nan
nan 0 0 0 0 0 0 0 0 0 0 0 0 0 0 0 -0 0 0 0 0 0 -0 0 0 0 0 -0 -0 -0 0 0 0 0 0 0 0 0 -0 0 0 -0 nan
nan 0 0 0 0 0 0 0 0 0 0 0 0 0 0 0 0 0 0 0 -0 -0 -0 -0 -0 -0 -0 -0 -0 0 -0 0 0 -0 0 0 0 0 0 0 0 -0 nan
nan 0 0 0 0 0 0 0 0 0 0 0 0 0 0 -0 -0 0 -0 -0 -0 -0 -0 -0 0 0 -0 0 -0 -0 0 0 0 0 0 0 0 0 -0 0 0 -0 nan
nan 0 0 0 0 0 0 0 0 0 0 0 0 0 -0 -0 -0 -0 -0 -0 -0 -0 -0 -0 -0 0 -0 0 0 0 0 0 0 0 0 0 0 -0 -0 -0 0 0 nan
nan -0 0 0 0 0 0 0 0 0 0 0 -0 -0 0 -0 -0 -0 -0 -0 -0 -0 0 -0 -0 0 -0 -0 -0 0 0 0 0 0 0 0 0 0 -0 -0 -0 -0 nan
nan 0 0 0 0 0 0 0 0 0 0 0 0 -0 -0 -0 -0 -0 -0 -0 -0 -0 -0 -0 -0 -0 -0 -0 -0 0 0 0 0 0 0 0 -0 -0 -0 -0 -0 0 nan
nan 0 0 0 0 0 0 0 0 0 0 0 0 0 -0 -0 -0 -0 -0 -0 -0 -0 -0 0 -0 -0 -0 -0 -0 0 0 0 -0 -0 0 -0 -0 -0 -0 0 0 -0 nan
nan 0 0 0 0 0 0 0 0 0 0 0 0 0 0 -0 -0 -0 -0 -0 -0 -0 -0 -0 -0 -0 0 0 0 0 0 -0 -0 -0 -0 0 0 -0 -0 -0 -0 0 nan
nan 0 0 0 0 0 0 0 0 0 0 0 0 0 0 0 0 0 0 0 0 0 0 0 0 -0 0 0 0 0 0 -0 -0 -0 -0 -0 -0 -0 -0 -0 -0 0 nan
nan 0 0 0 0 -0 -0 0 0 0 0 0 0 0 0 0 0 0 0 0 0 0 0 0 0 0 0 0 0 0 -0 -0 -0 -0 -0 -0 -0 -0 -0 -0 -0 -0 nan
nan 0 0 0 -0 -0 -0 -0 -0 0 0 0 0 0 0 0 0 0 0 0 0 0 0 0 0 0 0 0 0 0 -0 -0 -0 -0 -0 -0 -0 -0 0 0 -0 -0 nan
nan 0 0 0 -0 -0 -0 -0 0 0 0 -0 0 0 0 0 0 0 0 0 0 0 0 0 0 0 0 0 0 0 -0 -0 -0 -0 -0 -0 -0 -0 -0 0 0 -0 nan
nan 0 0 -0 -0 -0 0 0 0 0 0 0 0 0 0 0 0 0 0 0 0 0 0 0 0 0 0 0 0 -0 -0 0 0 0 -0 -0 -0 -0 -0 0 0 -0 nan
nan 0 -0 -0 0 0 0 0 0 0 0 0 0 0 0 0 0 0 0 0 0 0 0 0 0 0 0 0 0 0 -0 -0 0 0 -0 -0 -0 -0 -0 0 0 -0 nan
nan -0 -0 -0 0 0 0 -0 0 0 0 -0 -0 0 0 0 0 0 0 0 0 0 0 0 0 0 0 0 0 0 -0 0 0 0 0 0 0 -0 -0 -0 0 0 nan
nan -0 -0 0 0 -0 0 0 0 0 0 -0 0 0 0 0 0 0 0 0 0 0 0 0 0 0 0 0 0 0 -0 0 0 0 0 0 0 0 -0 0 -0 -0 nan
nan -0 -0 -0 -0 0 0 0 0 0 0 0 0 0 0 0 0 0 0 0 0 0 0 0 0 0 0 0 0 0 -0 -0 0 0 0 0 0 0 0 0 -0 -0 nan
nan 0 -0 -0 0 0 0 0 0 0 -0 0 0 0 -0 0 0 0 0 0 0 0 1 0 0 0 0 0 0 0 0 -0 0 0 0 0 0 0 0 0 0 -0 nan
nan 0 0 0 0 0 0 -0 0 0 0 0 0 0 0 0 0 0 0 0 0 0 1 1 0 1 0 0 0 0 -0 0 0 0 0 0 0 0 0 0 0 0 nan
nan 0 0 -0 0 1 0 0 0 0 0 0 0 0 0 0 0 0 0 0 0 1 1 1 0 0 0 0 0 0 0 0 0 0 0 0 0 0 0 0 0 0 nan
nan 0 0 1 1 1 0 0 0 0 0 0 0 0 0 0 0 0 0 0 0 0 1 1 0 0 0 0 0 1 0 0 0 0 1 0 0 0 0 0 0 0 nan
nan nan nan nan nan nan nan nan nan nan nan nan nan nan nan nan nan nan nan nan nan nan nan nan nan nan nan nan nan nan nan nan nan nan nan nan nan nan nan nan nan nan nan
Wind_Speed
10 10 10 11 12 13 14 15 15 16 16 17 19 19 19 18 19 21 20 18 17 16 16 16 16 17 17 20 21 21 20 19 20 21 18 16 17 18 18 19 18 17 17
8 8 9 10 11 11 11 12 13 14 14 14 14 14 15 15 14 14 14 14 14 13 12 11 11 13 15 18 19 17 15 14 13 14 12 8 9 10 12 13 12 13 13
8 9 10 10 10 9 8 7 7 8 8 9 9 10 11 11 11 11 11 10 8 6 7 8 10 11 11 11 12 11 10 10 10 9 9 7 8 10 11 11 10 11 12
9 9 9 9 9 9 9 8 8 8 8 8 9 9 9 8 7 7 6 6 5 4 4 6 5 5 5 5 6 7 7 7 8 8 9 8 9 8 8 9 9 11 11
8 8 8 8 8 8 8 8 8 8 7 6 6 6 5 4 4 3 2 3 2 1 1 1 1 1 3 4 4 5 7 8 8 7 7 6 7 8 9 10 9 10 11
8 7 7 7 7 8 7 7 6 6 5 5 5 4 5 5 6 7 7 5 4 4 2 1 1 1 2 3 5 7 7 6 6 7 8 8 10 10 10 10 11 11 6
8 7 7 7 7 7 6 6 7 7 7 7 9 9 10 12 12 11 10 6 4 3 2 1 2 3 4 6 6 6 6 6 6 7 9 10 10 11 11 10 9 9 9
9 8 8 7 7 7 8 9 9 10 11 13 13 12 12 13 11 9 8 4 2 1 2 3 3 4 6 6 6 7 7 8 9 10 9 10 10 11 10 9 9 10 10
9 9 8 7 8 9 11 12 13 13 14 14 13 12 10 9 8 6 4 2 2 2 4 5 6 7 8 8 8 8 9 9 10 11 9 8 8 7 8 9 9 11 12
10 9 8 8 10 12 13 15 15 14 13 13 12 10 7 5 4 2 3 4 5 5 6 7 8 8 9 9 8 8 8 9 9 9 8 8 7 8 9 11 12 13 13
11 10 9 10 12 14 16 16 15 13 12 11 8 6 4 2 1 2 3 5 6 6 6 7 8 8 8 9 9 7 6 7 7 7 7 7 8 10 11 12 13 15 16
11 11 12 14 16 18 17 15 14 12 10 8 6 3 1 1 3 4 5 5 6 7 6 7 7 7 6 6 6 5 5 5 5 6 7 8 10 11 13 14 16 17 18
14 14 16 18 18 16 15 14 13 11 8 5 3 1 2 3 4 5 6 7 7 7 7 7 7 7 7 6 5 5 6 6 7 8 10 11 12 13 14 16 16 17 18
17 18 19 20 19 17 16 14 11 8 6 4 3 3 4 4 5 6 7 8 9 9 8 7 7 6 6 6 6 6 7 8 9 10 11 13 14 14 14 15 16 16 18
19 20 21 20 18 17 15 12 9 8 6 4 4 5 6 5 6 7 8 9 8 8 7 8 7 7 7 7 7 8 9 10 12 13 14 14 14 14 14 14 14 14 16
21 23 22 21 19 17 14 12 10 8 7 7 7 7 6 6 6 8 9 8 9 9 8 8 8 8 8 8 8 9 11 13 13 13 13 14 14 14 14 12 13 15 18
23 23 22 20 19 17 14 13 11 11 10 9 9 8 6 6 6 7 7 8 8 9 9 9 9 9 9 9 10 11 13 13 13 13 14 14 14 14 14 14 15 18 19
22 21 20 19 17 16 15 14 13 12 11 11 10 8 7 7 7 7 8 8 9 9 9 9 10 10 10 11 12 13 14 14 14 15 14 14 14 16 16 16 17 20 21
24 23 21 20 19 17 16 16 16 15 14 12 12 10 9 9 9 9 9 10 10 10 11 10 10 11 12 13 14 16 16 16 16 16 15 15 14 17 18 18 20 20 20
24 23 22 22 21 21 20 19 19 17 16 15 14 12 12 11 10 11 11 11 11 12 12 12 13 13 14 15 17 18 19 18 18 18 17 16 17 18 19 20 21 22 22
25 24 24 24 24 23 21 21 19 18 18 16 14 14 13 13 12 12 12 12 13 13 14 15 15 15 16 18 20 20 21 21 20 20 19 19 19 20 20 21 22 22 23
27 26 27 26 25 25 24 22 21 21 20 18 16 16 16 16 14 14 14 14 14 15 16 18 17 16 17 19 20 22 23 23 22 21 21 22 21 22 22 22 22 24 25
28 28 29 29 28 26 26 24 23 22 21 19 18 17 17 17 16 15 15 15 17 16 17 19 19 18 18 20 21 22 23 23 22 23 24 24 24 24 23 23 24 26 27
31 32 32 32 31 30 29 27 25 23 22 21 20 18 17 17 17 17 17 18 18 17 18 19 19 19 19 19 19 20 22 23 23 23 23 24 25 24 24 25 26 27 27
32 34 36 36 35 34 31 29 27 25 24 21 20 19 18 18 18 18 18 19 19 19 19 20 19 19 19 19 19 20 21 22 23 23 23 24 25 26 26 27 28 29 29
33 35 38 39 39 39 38 33 29 26 24 21 17 20 19 19 19 19 19 20 20 20 20 20 20 20 20 21 21 21 22 22 22 22 23 24 26 27 28 29 30 31 32
Wind_Direction
261 259 257 257 255 254 254 251 248 246 246 248 251 253 257 260 262 264 265 269 272 271 269 275 273 274 277 279 277 275 271 270 270 269 268 266 258 252 251 258 258 256 254
267 268 266 260 256 252 250 247 246 247 247 247 251 256 260 260 262 266 268 273 276 279 284 285 279 282 283 282 280 276 275 273 265 271 268 256 244 243 240 242 246 255 264
268 269 266 260 255 251 246 239 235 236 237 242 248 254 260 266 270 275 281 277 273 282 287 285 290 287 279 277 275 273 270 265 258 254 254 245 240 233 239 249 264 265 270
265 263 260 256 252 246 244 242 242 244 248 251 255 259 261 264 268 278 261 255 250 258 266 274 282 283 276 268 259 260 262 265 263 257 249 239 239 254 246 252 257 263 265
260 259 256 251 246 242 238 241 244 241 236 236 240 244 245 228 276 198 190 184 180 133 73 279 180 258 292 296 296 292 280 268 255 249 257 272 255 251 258 269 270 274 286
256 262 258 253 246 233 224 226 214 203 200 193 183 149 128 132 138 130 113 108 100 94 73 47 26 347 300 298 296 291 283 270 263 259 260 262 259 264 263 266 278 288 302
254 262 265 253 240 228 216 195 190 181 163 143 131 130 132 117 111 113 103 95 88 96 78 335 314 313 295 282 277 269 270 277 280 276 269 263 262 264 269 273 279 281 286
253 257 254 244 224 203 187 174 160 147 137 130 128 122 119 113 101 94 91 82 53 6 316 305 309 297 286 287 289 290 288 284 280 276 271 272 269 267 270 268 270 279 290
245 250 245 225 202 187 171 159 148 142 139 132 120 111 102 101 95 79 65 42 345 318 301 299 295 289 293 299 295 284 274 270 271 279 281 271 260 254 260 264 276 282 291
244 244 234 202 186 173 163 153 145 143 138 128 121 115 111 98 85 26 332 322 311 310 313 312 309 305 305 303 301 294 282 273 271 271 268 268 265 262 266 274 276 281 288
233 226 208 187 177 167 157 151 150 148 140 133 129 126 118 98 4 318 317 320 320 318 313 309 310 312 306 305 304 296 283 276 278 273 260 258 265 268 269 274 279 280 282
223 210 192 176 169 161 160 160 154 152 148 145 146 145 136 322 334 342 346 335 325 326 324 320 314 306 303 300 295 280 273 283 277 271 268 270 270 272 277 280 281 280 279
208 196 181 170 167 168 168 166 165 162 162 167 170 201 294 308 325 333 331 330 329 327 325 320 319 313 309 297 284 266 272 273 275 277 277 277 277 279 281 283 283 281 278
201 190 179 174 174 176 175 177 178 180 187 195 222 262 284 288 299 318 325 329 329 325 323 318 309 296 286 279 267 264 268 275 279 282 285 286 286 286 285 286 291 293 290
195 187 181 183 185 185 187 189 192 200 211 229 250 270 279 290 306 315 322 322 319 314 312 312 305 294 284 275 266 268 275 280 286 288 287 289 290 290 294 298 300 302 304
195 187 189 191 192 195 199 202 207 214 223 241 258 267 282 300 306 313 319 319 317 310 308 304 296 287 280 269 268 274 279 283 285 287 291 295 298 300 305 305 303 305 307
200 193 196 198 202 205 207 211 221 228 235 246 253 259 279 294 300 305 308 311 310 310 304 298 293 286 278 270 273 279 283 286 289 291 295 301 304 304 305 305 306 305 307
201 202 208 209 212 213 217 223 229 233 242 248 255 263 280 293 298 300 300 302 303 306 303 296 290 285 276 271 274 280 286 286 287 290 296 303 305 303 305 305 308 309 308
204 209 212 215 218 222 225 228 232 238 245 251 256 263 273 282 291 296 295 295 297 297 298 298 292 283 276 274 276 279 282 286 288 289 293 298 300 298 302 306 309 310 309
211 216 218 220 222 225 228 232 235 240 246 251 257 261 268 277 286 291 292 294 294 293 291 291 287 284 281 278 278 279 282 284 284 285 289 289 293 296 302 303 308 309 307
219 220 223 224 227 230 234 238 242 245 249 253 259 261 266 273 279 283 287 291 293 294 291 289 286 285 283 281 281 282 283 286 286 286 287 288 289 293 297 298 303 306 307
228 228 230 231 232 234 236 239 242 246 249 252 257 261 266 272 276 281 289 294 295 296 293 289 289 288 285 283 282 282 283 285 286 286 285 285 288 290 295 296 302 307 307
231 233 234 236 235 237 238 239 242 246 249 252 255 260 266 272 277 282 288 291 294 294 292 292 293 292 288 287 285 284 283 284 284 282 283 284 288 291 296 297 302 306 307
235 235 235 236 236 237 238 240 243 246 248 250 254 260 266 271 275 280 286 290 293 295 293 292 292 293 293 291 289 287 286 286 284 283 282 283 287 291 294 294 297 303 308
239 238 239 238 234 233 237 241 243 244 247 250 253 261 266 270 276 279 284 288 294 297 297 294 293 293 294 294 294 291 288 286 286 284 281 282 284 287 290 296 301 304 306
245 244 244 244 242 236 232 228 235 244 246 248 255 265 266 273 277 279 282 288 295 297 298 296 293 293 293 293 294 292 290 288 286 283 283 284 287 291 294 294 298 301 302
Height
1491 1491 1492 1492 1492 1492 1492 1493 1493 1494 1495 1496 1497 1497 1498 1498 1499 1499 1499 1499 1498 1497 1497 1497 1497 1497 1496 1497 1497 1498 1497 1497 1496 1496 1495 1494 1495 1496 1497 1500 1500 1499 1500
1488 1489 1489 1489 1489 1489 1489 1489 1489 1490 1491 1492 1492 1492 1494 1494 1494 1494 1494 1494 1494 1493 1492 1493 1493 1492 1492 1493 1494 1494 1494 1493 1493 1494 1493 1493 1492 1492 1494 1496 1495 1496 1497
1486 1487 1487 1486 1486 1486 1487 1487 1487 1487 1487 1487 1488 1489 1490 1490 1490 1490 1490 1490 1490 1490 1490 1491 1489 1489 1489 1489 1490 1490 1490 1491 1490 1491 1491 1490 1490 1491 1492 1492 1491 1494 1495
1485 1484 1485 1484 1484 1484 1485 1485 1484 1484 1484 1484 1485 1486 1486 1486 1486 1487 1488 1488 1488 1487 1488 1488 1486 1486 1486 1487 1488 1488 1489 1489 1489 1489 1489 1489 1489 1489 1490 1491 1491 1491 1492
1483 1483 1483 1483 1482 1483 1482 1482 1481 1482 1481 1482 1483 1484 1483 1483 1483 1485 1486 1487 1486 1486 1487 1486 1485 1485 1486 1487 1488 1488 1488 1487 1487 1487 1487 1487 1488 1488 1488 1488 1488 1488 1489
1481 1481 1481 1480 1481 1481 1480 1480 1480 1480 1480 1481 1482 1482 1482 1482 1483 1484 1485 1487 1486 1486 1487 1486 1485 1485 1485 1486 1486 1486 1486 1486 1486 1486 1486 1486 1486 1486 1486 1485 1485 1485 1485
1479 1479 1479 1479 1479 1479 1479 1480 1480 1480 1480 1480 1481 1482 1483 1484 1484 1485 1484 1487 1487 1487 1487 1486 1485 1484 1485 1485 1484 1484 1484 1483 1484 1484 1484 1484 1484 1483 1483 1482 1482 1482 1482
1478 1478 1478 1478 1478 1478 1479 1479 1479 1480 1481 1481 1482 1483 1484 1485 1485 1485 1486 1488 1488 1487 1487 1486 1485 1484 1483 1483 1483 1482 1482 1482 1482 1482 1482 1481 1481 1481 1480 1480 1480 1479 1479
1476 1476 1476 1476 1477 1478 1478 1479 1480 1481 1483 1483 1484 1485 1485 1487 1487 1487 1488 1488 1488 1488 1487 1485 1484 1483 1482 1482 1481 1480 1480 1480 1480 1480 1479 1479 1478 1478 1478 1478 1478 1477 1476
1474 1474 1475 1475 1477 1477 1478 1479 1481 1484 1484 1485 1485 1486 1487 1488 1488 1488 1488 1488 1488 1487 1485 1484 1483 1482 1481 1480 1479 1478 1478 1478 1478 1478 1477 1477 1477 1477 1476 1476 1476 1475 1474
1471 1472 1473 1474 1476 1478 1479 1481 1483 1485 1485 1486 1487 1487 1488 1488 1488 1488 1488 1487 1486 1485 1483 1483 1481 1480 1479 1478 1477 1476 1476 1476 1476 1476 1476 1476 1475 1475 1474 1474 1473 1472 1471
1469 1471 1472 1474 1476 1478 1480 1483 1484 1485 1486 1487 1488 1488 1488 1488 1488 1488 1487 1486 1485 1483 1481 1480 1479 1478 1477 1476 1476 1475 1475 1474 1474 1474 1474 1474 1473 1472 1471 1470 1469 1467 1466
1468 1470 1471 1474 1477 1479 1481 1483 1485 1485 1486 1487 1487 1488 1488 1488 1487 1487 1486 1484 1483 1481 1480 1478 1477 1476 1475 1475 1474 1474 1474 1473 1473 1473 1472 1471 1470 1469 1468 1466 1465 1463 1461
1466 1468 1471 1473 1476 1479 1481 1483 1484 1485 1486 1486 1487 1487 1487 1487 1486 1485 1484 1483 1481 1480 1478 1477 1476 1475 1474 1474 1473 1473 1472 1472 1471 1470 1470 1468 1467 1465 1464 1462 1460 1458 1456
1464 1467 1470 1473 1476 1479 1481 1482 1483 1484 1485 1485 1486 1486 1486 1485 1484 1483 1482 1481 1480 1478 1476 1475 1474 1473 1472 1472 1471 1471 1471 1470 1469 1467 1466 1464 1463 1461 1460 1458 1455 1453 1451
1462 1465 1468 1472 1475 1477 1479 1480 1481 1482 1483 1484 1484 1484 1483 1482 1481 1481 1480 1478 1477 1475 1474 1473 1472 1471 1470 1470 1469 1469 1468 1467 1465 1464 1462 1461 1459 1457 1456 1454 1452 1450 1447
1460 1464 1468 1470 1473 1474 1476 1478 1479 1481 1481 1482 1482 1481 1481 1480 1479 1479 1477 1476 1474 1473 1472 1470 1469 1468 1468 1466 1466 1465 1464 1463 1462 1460 1459 1457 1455 1453 1452 1450 1449 1446 1444
1459 1463 1465 1468 1470 1472 1474 1476 1477 1478 1479 1479 1478 1478 1478 1478 1477 1476 1474 1473 1472 1470 1469 1467 1466 1465 1464 1463 1462 1461 1460 1459 1458 1456 1455 1453 1452 1449 1447 1446 1444 1441 1438
1456 1459 1462 1465 1467 1470 1471 1473 1474 1475 1475 1475 1475 1475 1475 1475 1474 1473 1471 1470 1468 1467 1466 1464 1463 1461 1460 1459 1458 1457 1456 1455 1453 1452 1451 1449 1447 1445 1443 1441 1439 1437 1433
1453 1456 1459 1462 1464 1465 1467 1468 1470 1471 1471 1471 1472 1472 1472 1471 1471 1469 1468 1466 1465 1464 1462 1460 1458 1457 1456 1455 1454 1452 1451 1450 1448 1447 1446 1444 1443 1441 1438 1436 1434 1431 1428
1449 1452 1454 1457 1458 1460 1462 1464 1466 1466 1467 1467 1468 1468 1468 1467 1466 1465 1464 1462 1461 1459 1457 1456 1454 1452 1451 1450 1448 1447 1445 1444 1443 1441 1440 1439 1437 1435 1433 1431 1428 1425 1422
1444 1447 1448 1451 1453 1455 1457 1459 1460 1461 1462 1463 1463 1463 1463 1462 1462 1461 1459 1458 1456 1454 1452 1451 1449 1448 1446 1444 1442 1441 1439 1438 1437 1436 1434 1432 1431 1429 1427 1425 1423 1420 1417
1437 1440 1442 1444 1447 1449 1451 1453 1454 1455 1456 1457 1458 1458 1458 1457 1456 1455 1454 1452 1451 1449 1447 1445 1443 1442 1440 1438 1436 1434 1432 1431 1431 1429 1427 1425 1424 1422 1421 1418 1416 1413 1410
1430 1432 1434 1437 1439 1442 1444 1446 1448 1449 1450 1451 1452 1452 1452 1451 1451 1450 1449 1447 1446 1444 1442 1440 1438 1436 1434 1432 1430 1428 1426 1425 1423 1422 1421 1419 1417 1416 1414 1411 1409 1406 1403
1421 1423 1425 1427 1430 1433 1437 1439 1441 1443 1444 1445 1445 1446 1446 1445 1445 1444 1443 1441 1439 1438 1436 1434 1431 1429 1428 1426 1424 1422 1420 1418 1416 1415 1413 1412 1410 1409 1407 1404 1401 1398 1396
1412 1414 1416 1418 1420 1423 1426 1429 1433 1436 1437 1439 1440 1440 1440 1440 1439 1438 1437 1435 1433 1432 1430 1428 1425 1423 1422 1419 1417 1415 1413 1411 1409 1408 1407 1404 1402 1400 1399 1396 1394 1390 1387